"Sample Date","Sample Time","Sample Value","Units","Flow Rate","Laser Status","Micron Size 0","Counts/Channel 0","Micron Size 1","Counts/Channel 1","Micron Size 2","Counts/Channel 2","Micron Size 3","Counts/Channel 3","Micron Size 4","Counts/Channel 4","Micron Size 5","Counts/Channel 5","Micron Size 6","Counts/Channel 6","Micron Size 7","Counts/Channel 7","Micron Size 8","Counts/Channel 8","Micron Size 9","Counts/Channel 9","Micron Size 10","Counts/Channel 10","Micron Size 11","Counts/Channel 11","Micron Size 12","Counts/Channel 12","Micron Size 13","Counts/Channel 13","Micron Size 14","Counts/Channel 14","Micron Size 15","Counts/Channel 15","Micron Size 16","Counts/Channel 16","Micron Size 17","Counts/Channel 17","Micron Size 18","Counts/Channel 18","Micron Size 19","Counts/Channel 19","Micron Size 20","Counts/Channel 20","Micron Size 21","Counts/Channel 21","Micron Size 22","Counts/Channel 22","Micron Size 23","Counts/Channel 23","Micron Size 24","Counts/Channel 24","Micron Size 25","Counts/Channel 25","Micron Size 26","Counts/Channel 26","Micron Size 27","Counts/Channel 27","Micron Size 28","Counts/Channel 28","Micron Size 29","Counts/Channel 29","Micron Size 30","Counts/Channel 30","Micron Size 31","Counts/Channel 31"
"03/03/08","20:00:04",67961.000,"cc",28303.758,1,0.100,51022.000,0.200,7515.000,0.300,4215.000,0.500,3753.000,1.000,1456.000,5.000,0
"03/03/08","20:00:10",64920.000,"cc",28345.420,1,0.100,51072.000,0.200,6359.000,0.300,3269.000,0.500,3029.000,1.000,1191.000,5.000,0
"03/03/08","20:00:16",69864.000,"cc",28352.022,1,0.100,52724.000,0.200,7525.000,0.300,4094.000,0.500,3953.000,1.000,1568.000,5.000,0
"03/03/08","20:00:22",71322.000,"cc",28259.012,1,0.100,53371.000,0.200,7968.000,0.300,4321.000,0.500,4055.000,1.000,1607.000,5.000,0
"03/03/08","20:00:28",77073.000,"cc",28234.951,1,0.100,54052.000,0.200,9670.000,0.300,5933.000,0.500,5247.000,1.000,2171.000,5.000,0
"03/03/08","20:00:34",73876.000,"cc",28369.205,1,0.100,54324.000,0.200,8560.000,0.300,4848.000,0.500,4323.000,1.000,1821.000,5.000,0
"03/03/08","20:00:40",75114.000,"cc",28333.063,1,0.100,54569.000,0.200,8724.000,0.300,5068.000,0.500,4778.000,1.000,1975.000,5.000,0
"03/03/08","20:00:46",75347.000,"cc",28326.352,1,0.100,56889.000,0.200,8381.000,0.300,4477.000,0.500,3930.000,1.000,1670.000,5.000,0
"03/03/08","20:00:52",81664.000,"cc",28362.592,1,0.100,60890.000,0.200,9396.000,0.300,4991.000,0.500,4632.000,1.000,1755.000,5.000,0
"03/03/08","20:00:58",95504.000,"cc",28319.979,1,0.100,70464.000,0.200,11823.000,0.300,5924.000,0.500,5312.000,1.000,1980.000,5.000,1.000
"03/03/08","20:01:04",80002.000,"cc",28281.065,1,0.100,55401.000,0.200,10278.000,0.300,6273.000,0.500,5846.000,1.000,2203.000,5.000,1.000
"03/03/08","20:01:10",72743.000,"cc",28293.815,1,0.100,53378.000,0.200,8452.000,0.300,4891.000,0.500,4337.000,1.000,1685.000,5.000,0
"03/03/08","20:01:16",70072.000,"cc",28345.260,1,0.100,53413.000,0.200,7410.000,0.300,4055.000,0.500,3700.000,1.000,1494.000,5.000,0
"03/03/08","20:01:22",68910.000,"cc",28353.672,1,0.100,53128.000,0.200,7135.000,0.300,3810.000,0.500,3471.000,1.000,1366.000,5.000,0
"03/03/08","20:01:28",71749.000,"cc",28293.865,1,0.100,54713.000,0.200,7685.000,0.300,4077.000,0.500,3781.000,1.000,1493.000,5.000,0
"03/03/08","20:01:34",75035.000,"cc",28325.523,1,0.100,54524.000,0.200,8998.000,0.300,5152.000,0.500,4621.000,1.000,1740.000,5.000,0
"03/03/08","20:01:40",73599.000,"cc",28281.283,1,0.100,55119.000,0.200,8396.000,0.300,4544.000,0.500,3980.000,1.000,1560.000,5.000,0
"03/03/08","20:01:46",71842.000,"cc",28306.420,1,0.100,53011.000,0.200,8220.000,0.300,4593.000,0.500,4260.000,1.000,1758.000,5.000,0
"03/03/08","20:01:52",83801.000,"cc",28274.984,1,0.100,59224.000,0.200,10875.000,0.300,6291.000,0.500,5323.000,1.000,2088.000,5.000,0
"03/03/08","20:01:58",86028.000,"cc",28367.488,1,0.100,58363.000,0.200,11841.000,0.300,7284.000,0.500,6235.000,1.000,2305.000,5.000,0
"03/03/08","20:02:04",85710.000,"cc",28294.906,1,0.100,60162.000,0.200,11365.000,0.300,6507.000,0.500,5532.000,1.000,2143.000,5.000,1.000
"03/03/08","20:02:10",85835.000,"cc",28325.094,1,0.100,61754.000,0.200,11088.000,0.300,6112.000,0.500,4938.000,1.000,1943.000,5.000,0
"03/03/08","20:02:16",88202.000,"cc",28328.066,1,0.100,65472.000,0.200,11086.000,0.300,5539.000,0.500,4476.000,1.000,1629.000,5.000,0
"03/03/08","20:02:22",91263.000,"cc",28343.164,1,0.100,67704.000,0.200,11199.000,0.300,5911.000,0.500,4670.000,1.000,1779.000,5.000,0
"03/03/08","20:02:28",94757.000,"cc",28338.699,1,0.100,70524.000,0.200,11771.000,0.300,5970.000,0.500,4719.000,1.000,1773.000,5.000,0
"03/03/08","20:02:34",90067.000,"cc",28326.990,1,0.100,63565.000,0.200,12147.000,0.300,6823.000,0.500,5504.000,1.000,2028.000,5.000,0
"03/03/08","20:02:40",95556.000,"cc",28289.754,1,0.100,72196.000,0.200,11808.000,0.300,5661.000,0.500,4298.000,1.000,1593.000,5.000,0
"03/03/08","20:02:46",86834.000,"cc",28275.043,1,0.100,62836.000,0.200,11128.000,0.300,5973.000,0.500,4933.000,1.000,1964.000,5.000,0
"03/03/08","20:02:52",84808.000,"cc",28316.688,1,0.100,61684.000,0.200,10624.000,0.300,5702.000,0.500,5026.000,1.000,1772.000,5.000,0
"03/03/08","20:02:58",79840.000,"cc",28298.106,1,0.100,58703.000,0.200,9706.000,0.300,5105.000,0.500,4656.000,1.000,1670.000,5.000,0
"03/03/08","20:03:04",70444.000,"cc",28355.906,1,0.100,54012.000,0.200,7632.000,0.300,3990.000,0.500,3462.000,1.000,1348.000,5.000,0
"03/03/08","20:03:10",84561.000,"cc",28296.441,1,0.100,65055.000,0.200,9841.000,0.300,4622.000,0.500,3675.000,1.000,1368.000,5.000,0
"03/03/08","20:03:16",97059.000,"cc",28340.404,1,0.100,75727.000,0.200,11146.000,0.300,4958.000,0.500,3767.000,1.000,1461.000,5.000,0
"03/03/08","20:03:22",82260.000,"cc",28335.721,1,0.100,63378.000,0.200,9090.000,0.300,4455.000,0.500,3872.000,1.000,1465.000,5.000,0
"03/03/08","20:03:28",79783.000,"cc",28329.402,1,0.100,60975.000,0.200,8915.000,0.300,4505.000,0.500,3843.000,1.000,1545.000,5.000,0
"03/03/08","20:03:34",80079.000,"cc",28350.645,1,0.100,60851.000,0.200,9036.000,0.300,4723.000,0.500,3968.000,1.000,1501.000,5.000,0
"03/03/08","20:03:40",78238.000,"cc",28358.012,1,0.100,59864.000,0.200,8773.000,0.300,4482.000,0.500,3719.000,1.000,1400.000,5.000,0
"03/03/08","20:03:46",75787.000,"cc",28254.566,1,0.100,61159.000,0.200,7645.000,0.300,3231.000,0.500,2719.000,1.000,1033.000,5.000,0
"03/03/08","20:03:52",76801.000,"cc",28324.258,1,0.100,60917.000,0.200,8042.000,0.300,3674.000,0.500,2988.000,1.000,1180.000,5.000,0
"03/03/08","20:03:58",81237.000,"cc",28344.092,1,0.100,64244.000,0.200,8907.000,0.300,3907.000,0.500,3039.000,1.000,1140.000,5.000,0
"03/03/08","20:04:04",69405.000,"cc",28302.061,1,0.100,57868.000,0.200,6205.000,0.300,2574.000,0.500,1992.000,1.000,766.000,5.000,0
"03/03/08","20:04:10",70097.000,"cc",28311.658,1,0.100,58256.000,0.200,6505.000,0.300,2492.000,0.500,2048.000,1.000,796.000,5.000,0
"03/03/08","20:04:16",71169.000,"cc",28316.719,1,0.100,58852.000,0.200,6558.000,0.300,2654.000,0.500,2291.000,1.000,814.000,5.000,0
"03/03/08","20:04:22",72024.000,"cc",28330.104,1,0.100,56720.000,0.200,7381.000,0.300,3701.000,0.500,3022.000,1.000,1200.000,5.000,0
"03/03/08","20:04:28",74293.000,"cc",28378.320,1,0.100,57707.000,0.200,7921.000,0.300,3915.000,0.500,3432.000,1.000,1318.000,5.000,0
"03/03/08","20:04:34",72745.000,"cc",28322.992,1,0.100,56954.000,0.200,7716.000,0.300,3643.000,0.500,3269.000,1.000,1163.000,5.000,0
"03/03/08","20:04:40",70136.000,"cc",28237.070,1,0.100,54585.000,0.200,7233.000,0.300,3694.000,0.500,3283.000,1.000,1341.000,5.000,0
"03/03/08","20:04:46",65767.000,"cc",28345.885,1,0.100,53313.000,0.200,6184.000,0.300,2871.000,0.500,2444.000,1.000,955.000,5.000,0
"03/03/08","20:04:52",75006.000,"cc",28348.033,1,0.100,55565.000,0.200,8952.000,0.300,4793.000,0.500,4201.000,1.000,1495.000,5.000,0
"03/03/08","20:04:58",67504.000,"cc",28319.742,1,0.100,53951.000,0.200,6723.000,0.300,3085.000,0.500,2668.000,1.000,1077.000,5.000,0
"03/03/08","20:05:04",65552.000,"cc",28354.818,1,0.100,53333.000,0.200,6042.000,0.300,2821.000,0.500,2425.000,1.000,931.000,5.000,0
"03/03/08","20:05:10",65001.000,"cc",28308.231,1,0.100,52358.000,0.200,6127.000,0.300,2897.000,0.500,2607.000,1.000,1012.000,5.000,0
"03/03/08","20:05:16",65226.000,"cc",28306.129,1,0.100,52036.000,0.200,6305.000,0.300,3073.000,0.500,2758.000,1.000,1053.000,5.000,1.000
"03/03/08","20:05:22",64130.000,"cc",28298.484,1,0.100,51119.000,0.200,6259.000,0.300,3020.000,0.500,2706.000,1.000,1025.000,5.000,1.000
"03/03/08","20:05:28",64209.000,"cc",28290.340,1,0.100,51039.000,0.200,6173.000,0.300,3084.000,0.500,2848.000,1.000,1065.000,5.000,0
"03/03/08","20:05:34",64903.000,"cc",28336.356,1,0.100,51219.000,0.200,6381.000,0.300,3310.000,0.500,2889.000,1.000,1104.000,5.000,0
"03/03/08","20:05:40",212048.000,"cc",28284.684,1,0.100,176221.000,0.200,27958.000,0.300,4032.000,0.500,2789.000,1.000,1048.000,5.000,0
"03/03/08","20:05:46",215603.000,"cc",28272.250,1,0.100,180413.000,0.200,27313.000,0.300,4057.000,0.500,2829.000,1.000,991.000,5.000,0
"03/03/08","20:05:52",223560.000,"cc",28327.764,1,0.100,186859.000,0.200,28787.000,0.300,4173.000,0.500,2805.000,1.000,935.000,5.000,1.000
"03/03/08","20:05:58",166436.000,"cc",28319.158,1,0.100,139321.000,0.200,19635.000,0.300,3653.000,0.500,2790.000,1.000,1037.000,5.000,0
"03/03/08","20:06:04",110546.000,"cc",28331.762,1,0.100,88085.000,0.200,13025.000,0.300,4429.000,0.500,3670.000,1.000,1337.000,5.000,0
"03/03/08","20:06:10",97363.000,"cc",28289.381,1,0.100,74247.000,0.200,11857.000,0.300,5401.000,0.500,4295.000,1.000,1563.000,5.000,0
"03/03/08","20:06:16",90709.000,"cc",28334.555,1,0.100,70930.000,0.200,10502.000,0.300,4367.000,0.500,3643.000,1.000,1267.000,5.000,0
"03/03/08","20:06:22",94999.000,"cc",28343.465,1,0.100,74554.000,0.200,10907.000,0.300,4565.000,0.500,3615.000,1.000,1358.000,5.000,0
"03/03/08","20:06:28",94028.000,"cc",28323.949,1,0.100,74139.000,0.200,10774.000,0.300,4272.000,0.500,3583.000,1.000,1260.000,5.000,0
"03/03/08","20:06:34",93049.000,"cc",28346.109,1,0.100,74252.000,0.200,10413.000,0.300,3980.000,0.500,3229.000,1.000,1174.000,5.000,1.000
"03/03/08","20:06:40",111530.000,"cc",28278.006,1,0.100,92579.000,0.200,12201.000,0.300,3199.000,0.500,2624.000,1.000,927.000,5.000,0
"03/03/08","20:06:46",96426.000,"cc",28328.707,1,0.100,81070.000,0.200,9805.000,0.300,2513.000,0.500,2216.000,1.000,822.000,5.000,0
"03/03/08","20:06:52",84936.000,"cc",28335.287,1,0.100,68453.000,0.200,9089.000,0.300,3301.000,0.500,3011.000,1.000,1082.000,5.000,0
"03/03/08","20:06:58",89585.000,"cc",28285.467,1,0.100,71983.000,0.200,9794.000,0.300,3512.000,0.500,3110.000,1.000,1186.000,5.000,0
"03/03/08","20:07:04",81405.000,"cc",28336.889,1,0.100,63061.000,0.200,9155.000,0.300,4155.000,0.500,3647.000,1.000,1387.000,5.000,0
"03/03/08","20:07:10",83059.000,"cc",28313.775,1,0.100,61791.000,0.200,9862.000,0.300,5119.000,0.500,4595.000,1.000,1692.000,5.000,0
"03/03/08","20:07:16",72977.000,"cc",28303.164,1,0.100,53412.000,0.200,8436.000,0.300,4908.000,0.500,4456.000,1.000,1765.000,5.000,0
"03/03/08","20:07:22",102484.000,"cc",28297.012,1,0.100,79439.000,0.200,12255.000,0.300,4890.000,0.500,4275.000,1.000,1625.000,5.000,0
"03/03/08","20:07:28",94473.000,"cc",28344.938,1,0.100,67193.000,0.200,12525.000,0.300,6551.000,0.500,5996.000,1.000,2208.000,5.000,0
"03/03/08","20:07:34",93748.000,"cc",28350.410,1,0.100,67396.000,0.200,12475.000,0.300,6259.000,0.500,5506.000,1.000,2112.000,5.000,0
"03/03/08","20:07:40",100476.000,"cc",28325.953,1,0.100,73027.000,0.200,13234.000,0.300,6465.000,0.500,5638.000,1.000,2112.000,5.000,0
"03/03/08","20:07:46",99766.000,"cc",28280.992,1,0.100,77270.000,0.200,11758.000,0.300,4979.000,0.500,4142.000,1.000,1617.000,5.000,0
"03/03/08","20:07:52",97025.000,"cc",28348.047,1,0.100,74187.000,0.200,11694.000,0.300,5097.000,0.500,4355.000,1.000,1692.000,5.000,0
"03/03/08","20:07:58",103520.000,"cc",28294.518,1,0.100,80306.000,0.200,12467.000,0.300,5024.000,0.500,4171.000,1.000,1552.000,5.000,0
"03/03/08","20:08:04",106033.000,"cc",28350.320,1,0.100,82563.000,0.200,12486.000,0.300,5160.000,0.500,4302.000,1.000,1522.000,5.000,0
"03/03/08","20:08:10",99289.000,"cc",28273.768,1,0.100,78361.000,0.200,11352.000,0.300,4404.000,0.500,3755.000,1.000,1417.000,5.000,0
"03/03/08","20:08:16",81130.000,"cc",28332.039,1,0.100,66560.000,0.200,8180.000,0.300,2951.000,0.500,2547.000,1.000,892.000,5.000,0
"03/03/08","20:08:22",75896.000,"cc",28320.631,1,0.100,63087.000,0.200,7295.000,0.300,2439.000,0.500,2237.000,1.000,838.000,5.000,0
"03/03/08","20:08:28",77603.000,"cc",28292.496,1,0.100,63765.000,0.200,7640.000,0.300,2780.000,0.500,2453.000,1.000,965.000,5.000,0
"03/03/08","20:08:34",82051.000,"cc",28297.588,1,0.100,67851.000,0.200,8071.000,0.300,2770.000,0.500,2414.000,1.000,945.000,5.000,0
"03/03/08","20:08:40",91147.000,"cc",28364.889,1,0.100,75204.000,0.200,9549.000,0.300,2885.000,0.500,2540.000,1.000,969.000,5.000,0
"03/03/08","20:08:46",73699.000,"cc",28282.441,1,0.100,61673.000,0.200,6811.000,0.300,2334.000,0.500,2115.000,1.000,766.000,5.000,0
"03/03/08","20:08:52",72908.000,"cc",28308.795,1,0.100,61103.000,0.200,6525.000,0.300,2325.000,0.500,2101.000,1.000,854.000,5.000,0
"03/03/08","20:08:58",65304.000,"cc",28370.518,1,0.100,55292.000,0.200,5593.000,0.300,1999.000,0.500,1766.000,1.000,654.000,5.000,0
"03/03/08","20:09:04",66751.000,"cc",28321.703,1,0.100,55785.000,0.200,5971.000,0.300,2210.000,0.500,2056.000,1.000,729.000,5.000,0
"03/03/08","20:09:10",69179.000,"cc",28225.486,1,0.100,57134.000,0.200,6408.000,0.300,2491.000,0.500,2241.000,1.000,905.000,5.000,0
"03/03/08","20:09:16",67685.000,"cc",28336.645,1,0.100,55943.000,0.200,6220.000,0.300,2474.000,0.500,2223.000,1.000,825.000,5.000,0
"03/03/08","20:09:22",68046.000,"cc",28339.928,1,0.100,54508.000,0.200,6601.000,0.300,3109.000,0.500,2799.000,1.000,1028.000,5.000,1.000
"03/03/08","20:09:28",65343.000,"cc",28343.457,1,0.100,52704.000,0.200,6241.000,0.300,2785.000,0.500,2595.000,1.000,1018.000,5.000,0
"03/03/08","20:09:34",65039.000,"cc",28310.719,1,0.100,51446.000,0.200,6455.000,0.300,3037.000,0.500,2938.000,1.000,1163.000,5.000,0
"03/03/08","20:09:40",65632.000,"cc",28456.834,1,0.100,52870.000,0.200,6313.000,0.300,2861.000,0.500,2550.000,1.000,1037.000,5.000,1.000
"03/03/08","20:09:46",64309.000,"cc",28237.996,1,0.100,51514.000,0.200,6164.000,0.300,2910.000,0.500,2674.000,1.000,1047.000,5.000,0
"03/03/08","20:09:52",65975.000,"cc",28331.920,1,0.100,52875.000,0.200,6443.000,0.300,2911.000,0.500,2667.000,1.000,1079.000,5.000,0
"03/03/08","20:09:58",69617.000,"cc",28293.250,1,0.100,56417.000,0.200,6580.000,0.300,2855.000,0.500,2726.000,1.000,1039.000,5.000,0
"03/03/08","20:10:04",66057.000,"cc",28264.639,1,0.100,53187.000,0.200,6364.000,0.300,2943.000,0.500,2568.000,1.000,995.000,5.000,0
"03/03/08","20:10:10",68968.000,"cc",28321.029,1,0.100,55270.000,0.200,6700.000,0.300,3274.000,0.500,2725.000,1.000,999.000,5.000,0
"03/03/08","20:10:16",68827.000,"cc",28372.565,1,0.100,55543.000,0.200,6781.000,0.300,2890.000,0.500,2645.000,1.000,968.000,5.000,0
"03/03/08","20:10:22",66045.000,"cc",28305.609,1,0.100,53566.000,0.200,6193.000,0.300,2767.000,0.500,2502.000,1.000,1017.000,5.000,0
"03/03/08","20:10:28",67626.000,"cc",28341.316,1,0.100,54287.000,0.200,6521.000,0.300,3014.000,0.500,2703.000,1.000,1101.000,5.000,0
"03/03/08","20:10:34",69765.000,"cc",28282.475,1,0.100,55432.000,0.200,7170.000,0.300,3247.000,0.500,2834.000,1.000,1082.000,5.000,0
"03/03/08","20:10:40",63641.000,"cc",28325.981,1,0.100,52442.000,0.200,5722.000,0.300,2427.000,0.500,2214.000,1.000,836.000,5.000,0
"03/03/08","20:10:46",60446.000,"cc",28322.371,1,0.100,49920.000,0.200,5292.000,0.300,2270.000,0.500,2155.000,1.000,809.000,5.000,0
"03/03/08","20:10:52",59234.000,"cc",28295.320,1,0.100,49364.000,0.200,5022.000,0.300,2161.000,0.500,1979.000,1.000,708.000,5.000,0
"03/03/08","20:10:58",57656.000,"cc",28352.568,1,0.100,48178.000,0.200,4806.000,0.300,2003.000,0.500,1947.000,1.000,722.000,5.000,0
"03/03/08","20:11:04",60296.000,"cc",28320.846,1,0.100,49822.000,0.200,5207.000,0.300,2386.000,0.500,2113.000,1.000,768.000,5.000,0
"03/03/08","20:11:10",57821.000,"cc",28308.484,1,0.100,48786.000,0.200,4675.000,0.300,1915.000,0.500,1793.000,1.000,652.000,5.000,0
"03/03/08","20:11:16",58368.000,"cc",28331.719,1,0.100,48597.000,0.200,5057.000,0.300,2077.000,0.500,1893.000,1.000,744.000,5.000,0
"03/03/08","20:11:22",60052.000,"cc",28253.867,1,0.100,49247.000,0.200,5263.000,0.300,2451.000,0.500,2213.000,1.000,878.000,5.000,0
"03/03/08","20:11:28",59857.000,"cc",28375.082,1,0.100,49264.000,0.200,5212.000,0.300,2412.000,0.500,2172.000,1.000,797.000,5.000,0
"03/03/08","20:11:34",61151.000,"cc",28294.969,1,0.100,50125.000,0.200,5480.000,0.300,2484.000,0.500,2288.000,1.000,774.000,5.000,0
"03/03/08","20:11:40",60118.000,"cc",28265.525,1,0.100,49739.000,0.200,5261.000,0.300,2317.000,0.500,2077.000,1.000,724.000,5.000,0
"03/03/08","20:11:46",66299.000,"cc",28303.055,1,0.100,53852.000,0.200,6188.000,0.300,2726.000,0.500,2510.000,1.000,1023.000,5.000,0
"03/03/08","20:11:52",64234.000,"cc",28297.066,1,0.100,51940.000,0.200,6038.000,0.300,2822.000,0.500,2494.000,1.000,940.000,5.000,0
"03/03/08","20:11:58",69465.000,"cc",28283.045,1,0.100,53939.000,0.200,7255.000,0.300,3677.000,0.500,3354.000,1.000,1240.000,5.000,0
"03/03/08","20:12:04",73177.000,"cc",28268.945,1,0.100,55779.000,0.200,7966.000,0.300,4273.000,0.500,3836.000,1.000,1323.000,5.000,0
"03/03/08","20:12:10",66873.000,"cc",28352.334,1,0.100,52756.000,0.200,6771.000,0.300,3345.000,0.500,2938.000,1.000,1063.000,5.000,0
"03/03/08","20:12:16",64319.000,"cc",28339.410,1,0.100,51662.000,0.200,6240.000,0.300,2844.000,0.500,2638.000,1.000,935.000,5.000,0
"03/03/08","20:12:22",67928.000,"cc",28329.008,1,0.100,54339.000,0.200,6749.000,0.300,3032.000,0.500,2831.000,1.000,977.000,5.000,0
"03/03/08","20:12:28",67808.000,"cc",28317.213,1,0.100,54556.000,0.200,6742.000,0.300,2994.000,0.500,2591.000,1.000,925.000,5.000,0
"03/03/08","20:12:34",74454.000,"cc",28341.947,1,0.100,59780.000,0.200,7649.000,0.300,3207.000,0.500,2811.000,1.000,1007.000,5.000,0
"03/03/08","20:12:40",74074.000,"cc",28336.869,1,0.100,60944.000,0.200,7181.000,0.300,2717.000,0.500,2361.000,1.000,871.000,5.000,0
"03/03/08","20:12:46",72179.000,"cc",28287.383,1,0.100,58499.000,0.200,7117.000,0.300,2905.000,0.500,2618.000,1.000,1040.000,5.000,0
"03/03/08","20:12:52",66502.000,"cc",28315.729,1,0.100,53420.000,0.200,6577.000,0.300,2963.000,0.500,2542.000,1.000,1000.000,5.000,0
"03/03/08","20:12:58",63798.000,"cc",28273.643,1,0.100,51023.000,0.200,6200.000,0.300,2875.000,0.500,2710.000,1.000,990.000,5.000,0
"03/03/08","20:13:04",64590.000,"cc",28399.635,1,0.100,50271.000,0.200,6661.000,0.300,3475.000,0.500,3041.000,1.000,1142.000,5.000,0
"03/03/08","20:13:10",70141.000,"cc",28220.984,1,0.100,52017.000,0.200,8264.000,0.300,4555.000,0.500,3906.000,1.000,1399.000,5.000,0
"03/03/08","20:13:16",68464.000,"cc",28312.070,1,0.100,52883.000,0.200,7375.000,0.300,3851.000,0.500,3179.000,1.000,1176.000,5.000,0
"03/03/08","20:13:22",75404.000,"cc",28262.973,1,0.100,56470.000,0.200,8914.000,0.300,4648.000,0.500,4005.000,1.000,1367.000,5.000,0
"03/03/08","20:13:28",78543.000,"cc",28341.840,1,0.100,61609.000,0.200,8667.000,0.300,3831.000,0.500,3297.000,1.000,1139.000,5.000,0
"03/03/08","20:13:34",71062.000,"cc",28335.752,1,0.100,54025.000,0.200,7994.000,0.300,4116.000,0.500,3631.000,1.000,1296.000,5.000,0
"03/03/08","20:13:40",71484.000,"cc",28315.850,1,0.100,55582.000,0.200,7613.000,0.300,3788.000,0.500,3283.000,1.000,1218.000,5.000,0
"03/03/08","20:13:46",73163.000,"cc",28329.648,1,0.100,58476.000,0.200,7424.000,0.300,3293.000,0.500,2934.000,1.000,1036.000,5.000,0
"03/03/08","20:13:52",74336.000,"cc",28268.969,1,0.100,58786.000,0.200,7800.000,0.300,3414.000,0.500,3149.000,1.000,1187.000,5.000,0
"03/03/08","20:13:58",83902.000,"cc",28344.188,1,0.100,65353.000,0.200,9456.000,0.300,4206.000,0.500,3566.000,1.000,1321.000,5.000,0
"03/03/08","20:14:04",244673.000,"cc",28325.906,1,0.100,189312.000,0.200,47332.000,0.300,4644.000,0.500,2499.000,1.000,886.000,5.000,0
"03/03/08","20:14:10",154880.000,"cc",28324.193,1,0.100,131762.000,0.200,17426.000,0.300,2765.000,0.500,2119.000,1.000,808.000,5.000,0
"03/03/08","20:14:16",133492.000,"cc",28305.365,1,0.100,108442.000,0.200,16131.000,0.300,4268.000,0.500,3399.000,1.000,1252.000,5.000,0
"03/03/08","20:14:22",111471.000,"cc",28358.475,1,0.100,90045.000,0.200,12714.000,0.300,4076.000,0.500,3423.000,1.000,1213.000,5.000,0
"03/03/08","20:14:28",104781.000,"cc",28330.115,1,0.100,84662.000,0.200,11840.000,0.300,3821.000,0.500,3179.000,1.000,1279.000,5.000,0
"03/03/08","20:14:34",88969.000,"cc",28264.217,1,0.100,69607.000,0.200,10227.000,0.300,4224.000,0.500,3628.000,1.000,1283.000,5.000,0
"03/03/08","20:14:40",87543.000,"cc",28348.598,1,0.100,66329.000,0.200,10508.000,0.300,5030.000,0.500,4145.000,1.000,1531.000,5.000,0
"03/03/08","20:14:46",84814.000,"cc",28298.971,1,0.100,62106.000,0.200,10410.000,0.300,5525.000,0.500,4895.000,1.000,1878.000,5.000,0
"03/03/08","20:14:52",83344.000,"cc",28318.848,1,0.100,62581.000,0.200,9774.000,0.300,4909.000,0.500,4337.000,1.000,1743.000,5.000,0
"03/03/08","20:14:58",86469.000,"cc",28283.621,1,0.100,63816.000,0.200,10625.000,0.300,5371.000,0.500,4851.000,1.000,1806.000,5.000,0
"03/03/08","20:15:04",86579.000,"cc",28345.711,1,0.100,64982.000,0.200,10444.000,0.300,5020.000,0.500,4515.000,1.000,1618.000,5.000,0
"03/03/08","20:15:10",81719.000,"cc",28383.912,1,0.100,59608.000,0.200,10069.000,0.300,5269.000,0.500,4860.000,1.000,1913.000,5.000,0
"03/03/08","20:15:16",80666.000,"cc",28271.953,1,0.100,60239.000,0.200,9614.000,0.300,4742.000,0.500,4372.000,1.000,1699.000,5.000,0
"03/03/08","20:15:22",78153.000,"cc",28289.551,1,0.100,58449.000,0.200,9154.000,0.300,4814.000,0.500,4185.000,1.000,1551.000,5.000,0
"03/03/08","20:15:28",79184.000,"cc",28228.711,1,0.100,58991.000,0.200,9468.000,0.300,4860.000,0.500,4282.000,1.000,1583.000,5.000,0
"03/03/08","20:15:34",75299.000,"cc",28405.145,1,0.100,58441.000,0.200,8216.000,0.300,3921.000,0.500,3429.000,1.000,1291.000,5.000,1.000
"03/03/08","20:15:40",79431.000,"cc",28279.691,1,0.100,60855.000,0.200,9038.000,0.300,4328.000,0.500,3793.000,1.000,1417.000,5.000,0
"03/03/08","20:15:46",79990.000,"cc",28334.981,1,0.100,62386.000,0.200,8888.000,0.300,4020.000,0.500,3488.000,1.000,1208.000,5.000,0
"03/03/08","20:15:52",80933.000,"cc",28307.650,1,0.100,62361.000,0.200,9261.000,0.300,4237.000,0.500,3687.000,1.000,1386.000,5.000,1.000
"03/03/08","20:15:58",78539.000,"cc",28245.496,1,0.100,61415.000,0.200,8685.000,0.300,3799.000,0.500,3381.000,1.000,1259.000,5.000,0
"03/03/08","20:16:04",79525.000,"cc",28341.205,1,0.100,60058.000,0.200,9300.000,0.300,4676.000,0.500,4082.000,1.000,1409.000,5.000,0
"03/03/08","20:16:10",76792.000,"cc",28311.334,1,0.100,58580.000,0.200,8758.000,0.300,4284.000,0.500,3765.000,1.000,1405.000,5.000,0
"03/03/08","20:16:16",73126.000,"cc",28290.924,1,0.100,56446.000,0.200,8107.000,0.300,3832.000,0.500,3492.000,1.000,1249.000,5.000,0
"03/03/08","20:16:22",75938.000,"cc",28334.287,1,0.100,55541.000,0.200,9207.000,0.300,5191.000,0.500,4477.000,1.000,1522.000,5.000,0
"03/03/08","20:16:28",74537.000,"cc",28256.914,1,0.100,54854.000,0.200,8882.000,0.300,4951.000,0.500,4296.000,1.000,1554.000,5.000,0
"03/03/08","20:16:34",72079.000,"cc",28333.641,1,0.100,54719.000,0.200,8182.000,0.300,4143.000,0.500,3700.000,1.000,1335.000,5.000,0
"03/03/08","20:16:40",64308.000,"cc",28360.522,1,0.100,51617.000,0.200,6260.000,0.300,2892.000,0.500,2583.000,1.000,956.000,5.000,0
"03/03/08","20:16:46",66601.000,"cc",28328.047,1,0.100,53939.000,0.200,6348.000,0.300,2901.000,0.500,2487.000,1.000,926.000,5.000,0
"03/03/08","20:16:52",76805.000,"cc",28318.912,1,0.100,55489.000,0.200,9421.000,0.300,5525.000,0.500,4649.000,1.000,1721.000,5.000,0